Weather Roundup
Issued by NWS

Home | Current Version | Previous Version | Text Only | Print | Product List | Glossary On
Versions: 1 2 3 4 5 6 7 8 9 10 11 12 13 14 15 16 17 18 19 20 21 22 23 24 25 26 27 28 29 30 31 32 33 34 35 36 37 38 39 40 41 42 43 44 45 46 47 48 49 50
000
NZUS93 KARX 060259
HRRWXR

CURRENT HOURLY OBSERVATIONS ACROSS
MUCH OF THE UPPER MISSISSIPPI VALLEY
NATIONAL WEATHER SERVICE LA CROSSE WI
1000 PM CDT SUN JUL 05 2015


...SOUTHEAST MINNESOTA...


CITY           SKY/WX    TMP DP  RH WIND       PRES   REMARKS
ROCHESTER      CLEAR     74  66  76 S13       29.88S
ROCHESTER/MAYO FAIR      75  66  73 SE10G18   29.87S
WINONA         CLEAR     75  64  69 S6        29.86F
AUSTIN         CLEAR     75  66  73 S7        29.87R
ALBERT LEA     CLEAR     77  66  69 S13       29.86R
DODGE CENTER   CLEAR     73  66  78 S12       29.87R
PRESTON        CLEAR     72  65  79 S10       29.90S
OWATONNA       CLEAR     77  64  65 S12G20    29.84R
FARIBAULT      CLEAR     77  66  69 S12       29.83S
$$

...ELSEWHERE IN MINNESOTA...


CITY           SKY/WX    TMP DP  RH WIND       PRES   REMARKS
MINNEAPOLIS    MOCLDY    80  67  64 S13G20    29.80R
INTNL FALLS    MOCLDY    66  61  84 NW9       29.80R
DULUTH         CLOUDY    76  68  76 SW14      29.79R THUNDER
RED WING       CLEAR     79  66  65 S6        29.83R
REDWOOD FALLS  CLOUDY    82  69  64 S10       29.77R
MANKATO        PTCLDY    79  66  65 S12       29.81R
WORTHINGTON    CLOUDY    79  66  65 S12       29.81S
FAIRMONT       CLEAR     77  66  69 S12       29.83R
$$

...SOUTHWEST WISCONSIN...


CITY           SKY/WX    TMP DP  RH WIND       PRES   REMARKS
LA CROSSE      PTCLDY    77  65  66 S12       29.87F
PRAIRIE DU CHI CLEAR     75  63  66 CALM      29.93R
BOSCOBEL       CLEAR     75  65  70 VRB6      29.93F
LONE ROCK      NOT AVBL
PLATTEVILLE    CLEAR     71  66  85 SE10      29.97F
FORT MC COY    PTCLDY    74  62  66 S7        29.92F
VIROQUA        FAIR      71  65  80 S7        29.95S
WIS DELLS      CLEAR     71  63  74 S7        29.95F
$$

...ELSEWHERE IN WISCONSIN...


CITY           SKY/WX    TMP DP  RH WIND       PRES   REMARKS
MILWAUKEE      PTCLDY    71  59  65 S6        30.01R
MADISON        MOCLDY    75  64  68 S8        29.98S
GREEN BAY      CLEAR     71  62  73 S9        29.95F
EAU CLAIRE     NOT AVBL
BLACK RVR FLS  FAIR      74  63  67 S7        29.90F
MEDFORD        PTCLDY    71  64  78 S8        29.91S
WAUSAU         PTCLDY    74  63  68 S9        29.91F
WIS RAPIDS     PTCLDY    74  62  66 S7        29.94F
MARSHFIELD     PTCLDY    72  62  71 S8        29.93S
RICE LAKE      CLEAR     74  65  74 S9        29.85F
$$

...NORTHEAST IOWA...


CITY           SKY/WX    TMP DP  RH WIND       PRES   REMARKS
DECORAH          N/A    N/A N/A N/A MISG        N/A
MASON CITY     CLEAR     76  67  73 S15       29.88S
CHARLES CITY   CLEAR     73  72  94 SE10      29.89F
OELWEIN          N/A     72  70  94 SE10      29.93F
$$

...ELSEWHERE IN IOWA...


CITY           SKY/WX    TMP DP  RH WIND       PRES   REMARKS
DES MOINES     PTCLDY    79  68  69 SE14      29.86F
IOWA CITY      CLEAR     73  70  90 SE5       29.95R
FORT DODGE     CLEAR     79  66  65 S9        29.86R
$$

...NORTHERN ILLINOIS...


CITY           SKY/WX    TMP DP  RH WIND       PRES   REMARKS
CHICAGO-OHARE  CLEAR     73  61  65 S7        30.02R
CHICAGO-MIDWAY CLEAR     79  61  53 S6        30.02R
MOLINE         CLEAR     72  66  81 SE6       29.97S
ROCKFORD       PTCLDY    71  63  75 S7        30.01S
PEORIA         CLEAR     75  65  70 SE6       30.01R
$$

NOTE: "FAIR" INDICATES FEW OR NO CLOUDS BELOW 12,000 FEET WITH NO
SIGNIFICANT WEATHER AND/OR OBSTRUCTIONS TO VISIBILITY. WIND
SPEEDS ARE IN MILES-PER-HOUR.



USA.gov is the U.S. government's official web portal to all federal, state and local government web resources and services.